Flag for U.S.A. Weather past 2 weeks in Juneau, Alaska, U.S.A.

Now
71 °F

Scattered clouds.


Feels Like: 77 °F
Forecast: 52 / 71 °F
Wind: 12 mph from Southwest

Location: Juneau International Airport

Current Time: Jul 5, 2015 at 1:45:55 PM

Latest Report: Jul 5, 2015 at 12:53 PM


Visibility: 10 mi

Pressure: 30.14 "Hg

Humidity: 51%

Dew point: 52 °F

Location of JuneauLocation

Historic Weather in Juneau — Graph

°F

Juneau temperature yesterday

Maximum temperature yesterday: 74 °F (at 5:53 PM)
Minimum temperature yesterday: 45 °F (at 3:53 AM)
Average temperature yesterday: 59 °F

Past Weeks' High & Low Weather Summary

 TemperatureHumidityPressure
High75 °F (Jun 23, 4:53 PM)100% (Jun 27, 2:53 AM)30.31 "Hg (Jun 27, 2:53 AM)
Low45 °F (Jul 4, 3:53 AM)40% (Jun 23, 4:53 PM)29.86 "Hg (Jun 25, 2:53 PM)
Average59 °F77%30.09 "Hg
* Reported Jun 20 11:53 AM — Jul 5 11:53 AM, Juneau, Weather by CustomWeather, © 2015

Note: Actual official high and low records may vary slightly from our data, if they occured in-between our weather recording intervals... More about our weather records

Advertising

Juneau weather history for previous 24 hours

 ConditionsComfort  
Time TempWeatherWind HumidityBarometerVisibility
11:53 AM
Sun, Jul 5
69 °FScattered clouds.8 mph57%30.14 "Hg10 mi
10:53 AM67 °FScattered clouds.12 mph61%30.15 "Hg10 mi
9:53 AM65 °FPassing clouds.10 mph66%30.16 "Hg10 mi
8:53 AM63 °FScattered clouds.7 mph68%30.17 "Hg10 mi
7:53 AM60 °FPassing clouds.7 mph69%30.17 "Hg10 mi
6:53 AM55 °FPassing clouds.No wind80%30.18 "Hg10 mi
5:53 AM52 °FPassing clouds.No wind93%30.17 "Hg10 mi
4:53 AM49 °FPassing clouds.No wind93%30.18 "Hg9 mi
3:53 AM48 °FPassing clouds.No wind96%30.18 "Hg10 mi
2:53 AM49 °FPassing clouds.No wind93%30.19 "Hg10 mi
1:53 AM51 °FPassing clouds.No wind92%30.19 "Hg10 mi
12:53 AM53 °FPassing clouds.5 mph89%30.18 "Hg10 mi
11:53 PM
Sat, Jul 4
55 °FPartly cloudy.7 mph83%30.18 "Hg10 mi
10:53 PM56 °FBroken clouds.6 mph84%30.19 "Hg10 mi
9:53 PM61 °FBroken clouds.No wind72%30.19 "Hg10 mi
8:53 PM65 °FBroken clouds.5 mph59%30.18 "Hg10 mi
7:53 PM70 °FHigh level clouds.6 mph47%30.17 "Hg10 mi
6:53 PM71 °FPartly sunny.9 mph45%30.18 "Hg10 mi
5:53 PM74 °FPartly sunny.7 mph43%30.19 "Hg10 mi
4:53 PM72 °FPartly sunny.7 mph49%30.20 "Hg10 mi
3:53 PM70 °FPartly sunny.10 mph49%30.21 "Hg10 mi
2:53 PM69 °FPartly sunny.12 mph51%30.22 "Hg10 mi
1:53 PM67 °FScattered clouds.9 mph57%30.24 "Hg10 mi
Weather by CustomWeather, © 2015

See weather overviewHow to use our weather pages